North Cushing, ME

4:43 PM EDT on May 25, 2017 (GMT -0400)
Saint George River GRN13 | | Change Station
Active Advisory: Coastal Flood Advisory Active Notice: Coastal Flood Advisory

Elev 49 ft 44.04 °N, 69.19 °W | Updated 7 minutes ago

Overcast
Overcast
53.2 °F
Feels Like 53.2 °F
N
6.0
Wind Variable Wind from SE
Gusts 9.0 mph

Today
High -- | Low -- °F
--% Chance of Precip.
Yesterday
High -- | Low -- °F
Precip. -- in
Pressure 29.93 in
Visibility 10.0 miles
Clouds Overcast 6000 ft
Dew Point 50 °F
Humidity 90%
Rainfall 0.00 in
Snow Depth Not available.
5:01 AM 8:06 PM
New Moon, 0% visible
METAR KRKD 251956Z AUTO 06007KT 10SM -RA OVC060 12/10 A2992 RMK AO2 SLP134 P0000 T01170100
Pressure 29.93 in
Visibility 10.0 miles
Clouds Overcast 6000 ft
Dew Point 50 °F
Humidity 90%
Rainfall 0.00 in
Snow Depth Not available.
5:01 AM 8:06 PM
New Moon, 0% visible
METAR KRKD 251956Z AUTO 06007KT 10SM -RA OVC060 12/10 A2992 RMK AO2 SLP134 P0000 T01170100

Get Your Daily Forecast Email!

Thanks for signing up!

Be on the lookout for a verification email in your inbox.

You'll start receiving severe weather alerts in your inbox..

×

10-Day Weather Forecast

Almanac

Astronomy

May. 25, 2017 Rise Set
Actual Time
Civil Twilight
Nautical Twilight
Astronomical Twilight
Moon
Length of Visible Light
Length of Day
Tomorrow will be .
, % of the Moon is Illuminated

Today's Extremes

State Highs State Lows

Community

WunderPhotos

Category 6

Welcome to Category 6. This is the collective home for Weather Underground's featured writeups by Dr. Jeff Masters (right), Bob Henson (left), Chris Burt, and other regular contributors.

Nearby

Air Quality

  Air Quality AQ Index Pollutant
Not available.

Snow Depth

Station Depth Elevation

Earthquake Activity

City Distance Mag. Time & Date
Minimum magnitude displayed is 2.5.

Coastal Water Temperatures

Place Temperature

Stations

Nearby Weather Stations

Station Location Temp. Windchill Dew Point Humidity Wind Precip. Elev Updated Type
                   

Watches & Warnings

Coastal Flood Advisory
Issued: 11:16 AM EDT May. 25, 2017 – National Weather Service

... Coastal flood advisory remains in effect from 10 PM this
evening to 1 am EDT Friday...

* location... coastal Maine and New Hampshire.

* Timing... between 11 PM Thursday night and 1 am Friday morning.

* Impacts... splash-over and minor coastal flooding.

Precautionary/preparedness actions...

A coastal flood advisory indicates that onshore winds and tides
will combine to generate flooding of low areas along the shore.